International Virtual Aviation Organisation

Russian Federation and Kazakhstan MCD

 

Карточка аэропорта UUEE

Внимание!
Информация на этой странице в стадии наполнения.
Если вы не увидели какой-то информации, или заметили неточность - пожалуйста сообщите нам!
Спасибо!
Команда RU-STAFF
Название аэропортаШереметьево
Название аэропорта (англ.)Sheremetyevo
Превышение630 ft. (192 m.)
Координаты55°58.416', 37°24.75'
Высота перехода1200 m
Эшелон переходаBy ATC
Коды ответчика1501-1537
Зона ОрВДМосква РПИ (UUWV)
Данные METARUUEE 211000Z 26005MPS 9999 BKN022 20/16 Q1016 R24L/CLRD62 R24C/CLRD62 NOSIG
Проноз погоды (TAF)UUEE 210759Z 2109/2209 30005MPS 9999 BKN011 TX22/2113Z TN13/2201Z TEMPO 2109/2118 27009G14MPS 3100 -TSRA BKN015CB BECMG 2118/2120 SCT030 TEMPO 2200/2204 FEW004
NOTAMshow/hide NOTAM
AWOS   TABLE

Информация о ВПП

ВПП Длина ВПП (м.) Покрытие Курс ВПП Частота ILS
06R3700Бетон64109.1
24L3700Бетон244110.5
06C3550Бетон64108.1
24C3550Бетон244111.3

Диспетчерские позиции

Позывной Наименование органа УВД Частота
UUEE_TWRШереметьево-Вышка131.500
UUEE_DELШереметьево-Деливери120.875
UUEE_GNDШереметьево-Руление121.900
UUEE_R_APPШереметьево-Круг118.100
UUEEFM1Шереметьево Машина Сопровождения121.900



Спутниковое изображение